STARLINK-1526, 46029

Orbit data source: Space-Track

STARLINK-1526, 46029 is a payload satellite owned by SpaceX/Seattle (US) in LEO that was launched on Fri, 07 Aug 2020 UTC via an FALCON 9 launch vehicle from the Air Force Eastern Test Range (AFETR). Payload-class satellites include a variety of spacecraft equipped with specific instruments for various scientific and technological missions. These include communications satellites like Starlink; space stations such as the ISS; scientific satellites like the Hubble; Earth observation satellites from companies like Planet Labs, Umbra, and HawkEye 360; GPS; miniature CubeSats for education and research; and military/defense satellites.

Loading next visibility...
Identifier
46029, 2020-055C
Orbit
LEO
Country
Flag of USUS
Related business
Manufacturer
SpaceX/Seattle
Mission
Operational Commercial Communications
Bus & Motor
STARLINK, Unknown motor
Mass
260 kg wet, ~248 kg dry
Launch date (UTC)
2020-08-07 (6 years ago)
Launch vehicle
FALCON 9
Launch site
Air Force Eastern Test Range (AFETR)
Object type
Payload
Rocket body
Debris
Shape & HBR
Box + 1 Pan, 10.1 m
Radar Cross Section
13.562 m², Large (>1 m²)

Expand to show TLE details & history
Last TLE update: 10 hours ago

TLE from 10 hours ago
0 STARLINK-1526
1 46029U 20055C   26125.53573574  .00003393  00000-0  12666-3 0  9990
2 46029  53.1606 222.6697 0001459  77.6646 282.4518 15.30193601317597
Epoch: 2026-05-05T12:51Z
TLE epoch observation values (Epoch: 2026-05-05T12:51:27.567Z)
Latitude
-0.00005°
Longitude
166.39562°
Altitude
475.918 km
Speed
7.629 km/s
True Right ascension
14h 50m 40s
True Declination
0° 00' 00"
Sunlit
Object was in full shadow at epoch
Visualization orbit readout
Latitude
Unknown
Longitude
Unknown
Altitude
Unknown
Speed
Unknown
Apparent Right ascension
Unknown
Apparent Declination
Unknown
Sunlit
N/A
Visualization observer readout
Local Sidereal Time
07:12:35
Azimuth
Unknown
Elevation
Unknown
Doppler factor
Unknown
Orbital elements
Apogee altitude
476.49 km
Perigee altitude
474.491 km
Semi-major axis
6,853.628 km
Eccentricity
0.00015
Inclination
53.1606°
RAAN
222.6697°
Arg. of periapsis
77.6646°
True anomaly
282.43547°
Mean anomaly
282.4518°
Eccentric anomaly
282.44364°
Mean motion
3.82527 °/min
Orbital period
94.11 mins
BSTAR
0.00012666
Loading maneuver chart data...
Computing Atmospheric mass density...
Loading historical data...
Loading historical data...
Loading historical data...
Loading historical data...
Loading historical data...
Loading historical data...
Loading historical data...

Documentation

Showing up to 5 results
|